Regional Weather Roundup
Issued by NWS Newport/Morehead, NC

Current Version | Previous Version | Text Only | Print | Product List | Glossary On
Versions: 1 2 3 4 5 6 7 8 9 10 11 12 13 14 15 16 17 18 19 20 21 22 23 24 25 26 27 28 29 30 31 32 33 34 35 36 37 38 39 40 41 42 43 44 45 46 47 48 49 50
000 ASUS42 KMHX 231614 RWRMHX WEATHER ROUNDUP FOR EASTERN NORTH CAROLINA NATIONAL WEATHER SERVICE NEWPORT/MOREHEAD CITY NC 1200 PM EDT WED AUG 23 2017 NOTE: "FAIR" INDICATES FEW OR NO CLOUDS BELOW 12,000 FEET WITH NO SIGNIFICANT WEATHER AND/OR OBSTRUCTIONS TO VISIBILITY NCZ015>017-031-032-045>047-102-103-231700- NORTH COAST CITY SKY/WX TMP DP RH WIND PRES REMARKS EDENTON PTSUNNY 86 77 76 CALM 29.88F ELIZABETH CITY PTSUNNY 86 78 77 SW5 29.87F KITTY HAWK MOSUNNY 87 74 64 CALM 29.86F MANTEO MOSUNNY 87 76 68 SW3 29.88F $$ NCZ045>047-081-094-103-104-231700- CENTRAL COAST CITY SKY/WX TMP DP RH WIND PRES REMARKS FRISCO MOSUNNY 87 79 76 SW10 29.90F HX 101 $$ NCZ095-097-098-100-101-231700- SOUTHERN COAST CITY SKY/WX TMP DP RH WIND PRES REMARKS BEAUFORT MOSUNNY 86 79 79 SW17 29.91S CEDAR ISLAND NOT AVBL JACKSONVILLE MOSUNNY 88 76 67 W6 29.89F PINEY ISLAND MOSUNNY N/A N/A N/A SW9 29.89F WILMINGTON MOSUNNY 89 74 60 S9 29.91S $$ NCZ011>013-027>030-043-044-078>080-089-090>093-098-231700- COASTAL PLAIN CITY SKY/WX TMP DP RH WIND PRES REMARKS AHOSKIE N/A 84 74 72 CALM 29.87F CLINTON MOSUNNY 88 78 72 SW5 29.90F HX 101 ELIZABETHTOWN NOT AVBL GOLDSBORO MOSUNNY 88 81 79 W6 29.88F HX 105 GREENVILLE SUNNY 88 75 66 CALM 29.90F HAVELOCK SUNNY 90 75 61 W7 29.90F HX 100 KENANSVILLE SUNNY 88 77 70 SW7 29.90S HX 100 KINSTON MOSUNNY 90 75 62 SW9 29.90S HX 100 NEW BERN MOSUNNY 89 77 67 W6 29.90F HX 101 RICHLANDS SUNNY 89 77 67 SW8 29.90F HX 101 ROCKY MOUNT SUNNY 88 75 65 CALM 29.88S WASHINGTON SUNNY 88 76 68 SW5 29.89S WHITEVILLE SUNNY 88 75 65 SW7 29.91S $$ AMZ130-135-150-152-154-156-158-170-250-252-270-ANZ085-086-088-633-658-670-231700- MARINE OBSERVATIONS STATION/POSITION TIME TEMP WIND PRES WAVE SWELL AIR SEA DIR/SP/G HT/PER HT/PER (UTC) (F) (DEG/KT/KT) (MB) (FT/S) (FT/S) CHESAPEAKE LIGHT NOT AVBL 64 E VA BEACH 1550 79 79 230/ 8/ 10 1012.1 4/ 9 3/ 9 DUCK 1542 83 66 240/ 9/ 12 1011.3 2 E DUCK 1600 71 N/A 2/ 9 OREGON INLET 1542 83 83 190/ 14/ 15 1011.8 13E OREGON INLT 1548 80 N/A 3/ 9 2/ 9 HATTERAS CG 1542 84 83 220/ 9/ 13 1012.5 DIAMOND BUOY 1550 83 84 220/ 14/ 16 1012.5 4/ 5 2/ 8 CAPE LOOKOUT 1600 83 240/ 11/ 15 1012.5 BEAUFORT LAB 1542 85 80 210/ 9/ 12 1012.3 30 SE NEW RVR IN 1508 80 84 250/ 14/ 17 1013.5 30 SE NEW RVR IN 1543 84 N/A 4/ 8 2/11 27 SE WRIGHTSVLE 1508 83 84 220/ 16/ 19 1013.3 5 SE WRIGHTSVLE 1508 83 84 210/ 12/ 19 1013.1 225 S CAPE HAT 1550 83 85 280/ 4/ 6 1015.4 3/ 9 3/ 9 41 SE CHARLESTON 1600 83 84 230/ 6/ 8 1013.9 $$

USA.gov is the U.S. government's official web portal to all federal, state and local government web resources and services.